OEO138 LSZH-ZSNJ

Flight info

Callsign OEO138
Flight time N/A
Altitude 31000
Route DEGES Z2 TUNUM DCT UMVEG DCT DIMLO DCT INVED DCT SOKRU DCT DINRO DCT UDROS UM859 OSDIP/N0484F330 UM859 KARDE UN644 ROLIN N644 TETRO DCT BARAD M747 SUBUT T923 ERLEV M11 RODAR A909 LEMOD/N0487F350 N644 DI A466 SULOM M890 LKN G598 SMR G336 KTM/N0490F370 B345 NONIM/K0906S1130 B345 OLGUT Y3 ENPAT W260 BIGOR W9 KDJ V69 WFX B213 ESPEG V154 SNF W269 OLPOV B213 WHA R343 HFE HFE54F
Aircraft MD11/H-SDE1E2E3FGHIJ2J3J4J5M1RWXY/LB1D1

Departure

Time N/A
Airport Zürich Airport (LSZH)

Arrival

Time 2026-04-26 08:46
Airport Nanjing Lukou International Airport (ZSNJ)
Time Latitude Longitude Altitude Speed Heading
2026-04-26 08:23 31.72654 117.14075 30752 ft 517 kts 63°
2026-04-26 08:23 31.73869 117.17998 30757 ft 516 kts 63°
2026-04-26 08:23 31.76293 117.25952 30765 ft 517 kts 64°
2026-04-26 08:24 31.78016 117.34171 29704 ft 524 kts 79°
2026-04-26 08:24 31.78239 117.38482 28101 ft 531 kts 85°
2026-04-26 08:24 31.78247 117.42831 26596 ft 532 kts 87°
2026-04-26 08:25 31.78201 117.47176 25182 ft 531 kts 87°
2026-04-26 08:25 31.78175 117.51472 24221 ft 520 kts 87°
2026-04-26 08:25 31.78194 117.55703 23539 ft 512 kts 86°
2026-04-26 08:25 31.78247 117.59853 22769 ft 504 kts 85°
2026-04-26 08:26 31.78323 117.63942 21987 ft 497 kts 85°
2026-04-26 08:26 31.78408 117.67983 21239 ft 490 kts 85°
2026-04-26 08:26 31.78494 117.71963 20551 ft 484 kts 85°
2026-04-26 08:26 31.78578 117.75890 19869 ft 478 kts 85°
2026-04-26 08:27 31.78657 117.79717 19207 ft 472 kts 85°
2026-04-26 08:27 31.78734 117.83547 18538 ft 466 kts 85°
2026-04-26 08:27 31.78807 117.87328 17809 ft 460 kts 85°
2026-04-26 08:27 31.78878 117.91060 17019 ft 454 kts 86°
2026-04-26 08:28 31.78947 117.94760 16259 ft 448 kts 86°
2026-04-26 08:28 31.79014 117.98384 15892 ft 444 kts 86°
2026-04-26 08:28 31.79080 118.02005 15527 ft 442 kts 86°
2026-04-26 08:28 31.79145 118.05614 15153 ft 439 kts 87°
2026-04-26 08:29 31.79207 118.09189 14967 ft 436 kts 87°
2026-04-26 08:29 31.79265 118.12708 14885 ft 433 kts 87°
2026-04-26 08:29 31.79325 118.16234 13975 ft 430 kts 87°
2026-04-26 08:29 31.79390 118.19735 13127 ft 425 kts 88°
2026-04-26 08:30 31.79455 118.23184 12301 ft 419 kts 88°
2026-04-26 08:30 31.79520 118.26585 11489 ft 413 kts 88°
2026-04-26 08:30 31.79627 118.29925 10697 ft 407 kts 85°
2026-04-26 08:30 31.79855 118.33214 9936 ft 401 kts 83°
2026-04-26 08:31 31.80138 118.36395 9717 ft 380 kts 83°
2026-04-26 08:31 31.80422 118.39400 9594 ft 359 kts 82°
2026-04-26 08:31 31.80692 118.42244 9459 ft 340 kts 82°
2026-04-26 08:31 31.80943 118.44918 9330 ft 318 kts 82°
2026-04-26 08:32 31.81174 118.47394 9178 ft 300 kts 82°
2026-04-26 08:32 31.81396 118.49804 8741 ft 295 kts 82°
2026-04-26 08:32 31.81616 118.52186 8275 ft 291 kts 83°
2026-04-26 08:32 31.81830 118.54530 7907 ft 288 kts 83°
2026-04-26 08:33 31.82045 118.56885 7550 ft 290 kts 83°
2026-04-26 08:33 31.82257 118.59239 7187 ft 289 kts 83°
2026-04-26 08:33 31.82467 118.61571 7021 ft 286 kts 83°
2026-04-26 08:33 31.82677 118.63908 7009 ft 288 kts 83°
2026-04-26 08:34 31.82887 118.66248 7009 ft 288 kts 83°
2026-04-26 08:34 31.83095 118.68585 6999 ft 287 kts 83°
2026-04-26 08:34 31.83302 118.70914 7000 ft 287 kts 83°
2026-04-26 08:34 31.83509 118.73248 7000 ft 287 kts 83°
2026-04-26 08:35 31.83716 118.75582 7007 ft 287 kts 83°
2026-04-26 08:35 31.83922 118.77916 7000 ft 287 kts 83°
2026-04-26 08:35 31.84128 118.80251 7002 ft 287 kts 83°
2026-04-26 08:35 31.84333 118.82583 7006 ft 286 kts 83°
2026-04-26 08:36 31.84645 118.84890 6988 ft 286 kts 70°
2026-04-26 08:36 31.85438 118.86998 6648 ft 282 kts 60°
2026-04-26 08:36 31.86429 118.88984 6160 ft 281 kts 57°
2026-04-26 08:36 31.87459 118.90923 5684 ft 278 kts 56°
2026-04-26 08:37 31.88486 118.92841 5261 ft 275 kts 56°
2026-04-26 08:37 31.89497 118.94736 4895 ft 272 kts 57°
2026-04-26 08:37 31.90503 118.96626 4516 ft 273 kts 57°
2026-04-26 08:37 31.91508 118.98514 4155 ft 270 kts 57°
2026-04-26 08:38 31.92479 119.00345 4023 ft 254 kts 58°
2026-04-26 08:38 31.93353 119.02031 4006 ft 235 kts 61°
2026-04-26 08:38 31.93911 119.03808 3845 ft 229 kts 82°
2026-04-26 08:38 31.93726 119.05645 3457 ft 226 kts 115°
2026-04-26 08:39 31.92794 119.07077 3132 ft 219 kts 143°
2026-04-26 08:39 31.91559 119.08107 3040 ft 217 kts 148°
2026-04-26 08:39 31.90335 119.09047 3007 ft 203 kts 149°
2026-04-26 08:39 31.89223 119.09890 2988 ft 182 kts 149°
2026-04-26 08:40 31.88162 119.10679 3005 ft 179 kts 152°
2026-04-26 08:40 31.87012 119.11168 3028 ft 172 kts 176°
2026-04-26 08:40 31.85854 119.10928 2996 ft 170 kts 210°
2026-04-26 08:40 31.85054 119.09924 3057 ft 173 kts 234°
2026-04-26 08:41 31.84333 119.08776 3023 ft 175 kts 232°
2026-04-26 08:41 31.83606 119.07631 3020 ft 175 kts 233°
2026-04-26 08:41 31.82904 119.06463 3043 ft 175 kts 236°
2026-04-26 08:41 31.82241 119.05270 3000 ft 173 kts 236°
2026-04-26 08:42 31.81585 119.04081 2996 ft 174 kts 236°
2026-04-26 08:42 31.80924 119.02874 2882 ft 177 kts 236°
2026-04-26 08:42 31.80273 119.01670 2658 ft 174 kts 236°
2026-04-26 08:42 31.79627 119.00469 2434 ft 173 kts 236°
2026-04-26 08:43 31.78991 118.99285 2194 ft 171 kts 236°
2026-04-26 08:43 31.78365 118.98088 1996 ft 172 kts 237°
2026-04-26 08:43 31.77764 118.96931 1741 ft 163 kts 238°
2026-04-26 08:43 31.77186 118.95821 1526 ft 155 kts 237°
2026-04-26 08:44 31.76625 118.94751 1337 ft 152 kts 237°
2026-04-26 08:44 31.76052 118.93678 1145 ft 157 kts 237°
2026-04-26 08:44 31.75478 118.92616 923 ft 152 kts 237°
2026-04-26 08:44 31.74925 118.91552 725 ft 152 kts 238°
2026-04-26 08:45 31.74384 118.90491 566 ft 153 kts 238°
2026-04-26 08:45 31.73816 118.89411 388 ft 158 kts 237°
2026-04-26 08:45 31.73229 118.88324 168 ft 156 kts 237°
2026-04-26 08:45 31.72674 118.87288 63 ft 135 kts 238°
2026-04-26 08:46 31.72239 118.86479 56 ft 99 kts 238°
2026-04-26 08:46 31.71958 118.85937 62 ft 52 kts 245°
2026-04-26 08:46 31.71909 118.85663 66 ft 16 kts 278°
2026-04-26 08:46 31.71977 118.85599 56 ft 12 kts 342°
2026-04-26 08:47 31.72055 118.85603 61 ft 11 kts 39°
2026-04-26 08:47 31.72119 118.85696 59 ft 16 kts 57°
2026-04-26 08:47 31.72185 118.85820 56 ft 19 kts 58°
2026-04-26 08:47 31.72270 118.85978 59 ft 25 kts 57°
2026-04-26 08:48 31.72376 118.86175 58 ft 32 kts 58°
2026-04-26 08:48 31.72491 118.86393 57 ft 31 kts 58°
2026-04-26 08:48 31.72604 118.86600 56 ft 29 kts 57°
2026-04-26 08:48 31.72711 118.86799 56 ft 28 kts 58°
2026-04-26 08:49 31.72814 118.86995 56 ft 28 kts 58°
2026-04-26 08:49 31.72935 118.87218 56 ft 34 kts 57°
2026-04-26 08:49 31.73058 118.87449 56 ft 33 kts 58°
2026-04-26 08:49 31.73179 118.87675 56 ft 32 kts 58°
2026-04-26 08:50 31.73296 118.87891 56 ft 30 kts 57°
2026-04-26 08:50 31.73402 118.88088 56 ft 20 kts 58°
2026-04-26 08:50 31.73461 118.88200 56 ft 9 kts 57°
2026-04-26 08:50 31.73493 118.88253 61 ft 4 kts 46°
2026-04-26 08:51 31.73527 118.88245 58 ft 5 kts 328°
2026-04-26 08:51 31.73557 118.88222 56 ft 3 kts 328°
2026-04-26 08:51 31.73568 118.88214 58 ft 1 kts 328°
2026-04-26 08:52 31.73571 118.88212 59 ft 0 kts 328°